Location: Siratepeler Tepesi
(39.1042°N, 32.0781°E)
Time: 01:31:02
(UTC+00:00)

SL-16 R/B - Pass Details

Date: 11 April 2026
Orbit: 841 x 845 km, 71.0° (Epoch: 13 May)

Event Time Altitude Azimuth Distance (km) Brightness Sun altitude
Rises 17:08:01 0° 224° (SW) 3,384 5.7 -8.9°
Reaches altitude 10° 17:10:38 10° 233° (SW) 2,454 5.1 -9.4°
Maximum altitude 17:15:50 37° 300° (WNW) 1,280 3.9 -10.3°
Drops below altitude 10° 17:21:04 10° 7° (N) 2,469 4.8 -11.3°
Sets 17:23:43 0° 16° (NNE) 3,409 5.4 -11.7°
